This is the latest recevied weather packets stored in our database for station/object K7NDG. If no packets are shown the sender has not sent any weather packets the latest 1 day(s).
| Time | Temp. | Humidity | Pressure | Rain* | Wind** | Luminosity | Snow |
|---|---|---|---|---|---|---|---|
| 1778055841 | 12.22° C | 82% | 1018.7 hPa | 0 mm | 0.89 m/s, 327° | 0 W/m² | - |
| 1778055537 | 12.22° C | 82% | 1018.6 hPa | 0 mm | 0.89 m/s, 353° | 0 W/m² | - |
| 1778055235 | 12.22° C | 82% | 1018.7 hPa | 0 mm | 0 m/s | 0 W/m² | - |
| 1778054933 | 12.22° C | 82% | 1018.6 hPa | 0 mm | 0.45 m/s, 309° | 0 W/m² | - |
| 1778054629 | 12.22° C | 82% | 1018.6 hPa | 0 mm | 0.89 m/s, 304° | 0 W/m² | - |
| 1778054327 | 12.22° C | 82% | 1018.6 hPa | 0 mm | 0 m/s | 0 W/m² | - |
| 1778054024 | 12.22° C | 82% | 1018.3 hPa | 0 mm | 0.45 m/s, 261° | 0 W/m² | - |
| 1778053721 | 12.22° C | 82% | 1018.4 hPa | 0 mm | 0.89 m/s, 302° | 0 W/m² | - |
| 1778053418 | 12.22° C | 82% | 1018.4 hPa | 0 mm | 0 m/s | 0 W/m² | - |
| 1778053116 | 12.22° C | 82% | 1018.2 hPa | 0 mm | 0.45 m/s, 337° | 0 W/m² | - |
| 1778052813 | 12.22° C | 82% | 1018.3 hPa | 0 mm | 0 m/s | 0 W/m² | - |
| 1778052510 | 12.22° C | 82% | 1018.1 hPa | 0 mm | 0 m/s | 0 W/m² | - |
| 1778052208 | 12.22° C | 82% | 1018.2 hPa | 0 mm | 1.34 m/s, 269° | 0 W/m² | - |
| 1778051906 | 12.22° C | 82% | 1018.1 hPa | 0 mm | 0.89 m/s, 339° | 0 W/m² | - |
| 1778051603 | 12.22° C | 82% | 1018.1 hPa | 0 mm | 0 m/s | 0 W/m² | - |
| 1778051300 | 12.22° C | 82% | 1018.2 hPa | 0 mm | 0.89 m/s, 316° | 0 W/m² | - |
| 1778050997 | 12.22° C | 81% | 1018 hPa | 0 mm | 0 m/s | 0 W/m² | - |
| 1778050694 | 12.22° C | 81% | 1018 hPa | 0 mm | 0.89 m/s, 305° | 0 W/m² | - |
| 1778050392 | 12.22° C | 81% | 1018.1 hPa | 0 mm | 0 m/s | 0 W/m² | - |
| 1778050088 | 12.22° C | 81% | 1018 hPa | 0 mm | 0 m/s | 0 W/m² | - |
| 1778049784 | 12.22° C | 81% | 1018.1 hPa | 0 mm | 0.89 m/s, 320° | 0 W/m² | - |
| 1778049481 | 12.22° C | 81% | 1018.1 hPa | 0 mm | 0.89 m/s, 307° | 0 W/m² | - |
| 1778049179 | 12.22° C | 81% | 1017.8 hPa | 0 mm | 1.34 m/s, 275° | 0 W/m² | - |
| 1778048877 | 12.22° C | 81% | 1018 hPa | 0 mm | 0 m/s | 0 W/m² | - |
| 1778048574 | 12.22° C | 81% | 1017.9 hPa | 0 mm | 0 m/s | 0 W/m² | - |
* Rain latest hour (hover to see other rain measurements)
** Current wind speed in m/s (hover to see current wind gust speed)